HODOYOSHI-4

Last updated on Sat Jul 05 2025 00:02:29 GMT+0000 (Coordinated Universal Time)

1 40011U 14033B 25185.59125185 .00000988 00000+0 11613-3 0 9993 2 40011 97.5521 22.4143 0024696 20.6909 339.5302 14.86806267597134
UTC large
Height (km)
Speed (km/s)
/
Latitude / Longitude
Inclination (degrees)
Orbital Period (minutes)
Azimuth
Elevation
Range (km)
Doppler Factor

Next 0 passes for location: London (51.5072 / 0.1276)

Sorry there are no passes over London.